• In Netherlands
  • List of Countries
  • For 7 days
  • Water Temperature
  • Satellite Maps
  • Weather Map
  • Weather Widgets
  • user-avatar
    Login

    Hourly Weather Ravda

    Today, 21 July, Friday

    Time Temperature Precipitation Wind Pressure Humidity
    00:00 +21°C° 0 mm 1 mps 760 mmHg 68%
    01:00 +20°C° 0 mm 2 mps 760 mmHg 68%
    02:00 +20°C° 0 mm 2 mps 759 mmHg 67%
    03:00 +19°C° 0 mm 2 mps 759 mmHg 67%
    04:00 +19°C° 0 mm 2 mps 760 mmHg 68%
    05:00 +19°C° 0 mm 2 mps 760 mmHg 68%
    06:00 +21°C° 0 mm 2 mps 760 mmHg 59%
    07:00 +25°C° 0 mm 2 mps 760 mmHg 51%
    08:00 +27°C° 0 mm 3 mps 760 mmHg 42%
    09:00 +29°C° 0 mm 3 mps 760 mmHg 37%
    10:00 +31°C° 0 mm 3 mps 760 mmHg 33%
    11:00 +33°C° 0 mm 4 mps 760 mmHg 28%
    12:00 +34°C° 0 mm 4 mps 760 mmHg 27%
    13:00 +34°C° 0 mm 4 mps 760 mmHg 26%
    14:00 +35°C° 0 mm 5 mps 760 mmHg 25%
    15:00 +34°C° 0 mm 5 mps 760 mmHg 27%
    16:00 +34°C° 0 mm 5 mps 760 mmHg 29%
    17:00 +33°C° 0 mm 5 mps 760 mmHg 31%
    18:00 +30°C° 0 mm 4 mps 760 mmHg 40%
    19:00 +27°C° 0 mm 3 mps 760 mmHg 49%
    20:00 +24°C° 0 mm 2 mps 760 mmHg 58%
    21:00 +23°C° 0 mm 2 mps 760 mmHg 61%
    22:00 +23°C° 0 mm 1 mps 761 mmHg 64%
    23:00 +22°C° 0 mm 1 mps 761 mmHg 67%

    Tomorrow, 22 July, Saturday

    Time Temperature Precipitation Wind Pressure Humidity
    00:00 +21°C° 0 mm 1 mps 761 mmHg 66%
    01:00 +21°C° 0 mm 1 mps 761 mmHg 66%
    02:00 +20°C° 0 mm 2 mps 760 mmHg 65%
    03:00 +20°C° 0 mm 2 mps 760 mmHg 65%
    04:00 +20°C° 0 mm 1 mps 760 mmHg 65%
    05:00 +20°C° 0 mm 1 mps 760 mmHg 64%
    06:00 +23°C° 0 mm 1 mps 761 mmHg 56%
    07:00 +26°C° 0 mm 1 mps 761 mmHg 48%
    08:00 +29°C° 0 mm 1 mps 761 mmHg 40%
    09:00 +31°C° 0 mm 1 mps 761 mmHg 35%
    10:00 +32°C° 0 mm 1 mps 761 mmHg 30%
    11:00 +35°C° 0 mm 2 mps 761 mmHg 25%
    12:00 +36°C° 0 mm 2 mps 761 mmHg 24%
    13:00 +37°C° 0 mm 3 mps 760 mmHg 22%
    14:00 +37°C° 0 mm 3 mps 760 mmHg 21%
    15:00 +37°C° 0 mm 3 mps 760 mmHg 23%
    16:00 +36°C° 0 mm 4 mps 760 mmHg 24%
    17:00 +36°C° 0 mm 4 mps 760 mmHg 25%
    18:00 +33°C° 0 mm 3 mps 760 mmHg 33%
    19:00 +29°C° 0 mm 3 mps 760 mmHg 41%
    20:00 +26°C° 0 mm 2 mps 760 mmHg 48%
    21:00 +25°C° 0 mm 2 mps 760 mmHg 50%
    22:00 +24°C° 0 mm 1 mps 760 mmHg 53%
    23:00 +24°C° 0 mm 1 mps 760 mmHg 55%

    Day after tomorrow, 23 July, Sunday

    Time Temperature Precipitation Wind Pressure Humidity
    00:00 +23°C° 0 mm 1 mps 760 mmHg 55%
    01:00 +23°C° 0 mm 1 mps 760 mmHg 54%
    02:00 +23°C° 0 mm 1 mps 760 mmHg 54%
    03:00 +23°C° 0 mm 1 mps 760 mmHg 54%
    04:00 +23°C° 0 mm 1 mps 760 mmHg 54%
    05:00 +20°C° 0 mm 0 mps 760 mmHg 54%
    06:00 +23°C° 0 mm 0 mps 760 mmHg 48%
    07:00 +27°C° 0 mm 1 mps 760 mmHg 42%
    08:00 +30°C° 0 mm 1 mps 760 mmHg 37%
    09:00 +32°C° 0 mm 1 mps 760 mmHg 33%
    10:00 +34°C° 0 mm 2 mps 760 mmHg 30%
    11:00 +36°C° 0 mm 3 mps 760 mmHg 27%
    12:00 +37°C° 0 mm 3 mps 759 mmHg 26%
    13:00 +37°C° 0 mm 3 mps 759 mmHg 25%
    14:00 +38°C° 0 mm 4 mps 759 mmHg 24%
    15:00 +37°C° 0 mm 4 mps 759 mmHg 26%
    16:00 +36°C° 0 mm 4 mps 759 mmHg 28%
    17:00 +35°C° 0 mm 4 mps 758 mmHg 30%
    18:00 +33°C° 0 mm 4 mps 758 mmHg 40%
    19:00 +29°C° 0 mm 3 mps 759 mmHg 49%
    20:00 +26°C° 0 mm 3 mps 759 mmHg 59%
    21:00 +25°C° 0 mm 2 mps 759 mmHg 63%
    22:00 +24°C° 0 mm 2 mps 759 mmHg 67%
    23:00 +24°C° 0 mm 1 mps 759 mmHg 72%

    24 July, Monday

    Time Temperature Precipitation Wind Pressure Humidity
    00:00 +23°C° 0 mm 1 mps 759 mmHg 72%
    01:00 +23°C° 0 mm 1 mps 759 mmHg 72%
    02:00 +23°C° 0 mm 1 mps 758 mmHg 73%
    03:00 +23°C° 0 mm 1 mps 758 mmHg 72%
    04:00 +22°C° 0 mm 1 mps 758 mmHg 71%
    05:00 +22°C° 0 mm 1 mps 758 mmHg 70%
    06:00 +25°C° 0 mm 1 mps 758 mmHg 61%
    07:00 +27°C° 0 mm 1 mps 758 mmHg 53%
    08:00 +30°C° 0 mm 1 mps 758 mmHg 44%
    09:00 +31°C° 0 mm 2 mps 758 mmHg 39%
    10:00 +34°C° 0 mm 3 mps 757 mmHg 34%
    11:00 +36°C° 0 mm 3 mps 757 mmHg 29%
    12:00 +36°C° 0 mm 4 mps 757 mmHg 28%
    13:00 +37°C° 0 mm 4 mps 757 mmHg 27%
    14:00 +37°C° 0 mm 4 mps 756 mmHg 26%
    15:00 +36°C° 0 mm 4 mps 756 mmHg 28%
    16:00 +35°C° 0 mm 4 mps 756 mmHg 30%
    17:00 +35°C° 0 mm 4 mps 755 mmHg 32%
    18:00 +32°C° 0 mm 4 mps 755 mmHg 41%
    19:00 +28°C° 0 mm 3 mps 756 mmHg 51%
    20:00 +26°C° 0 mm 3 mps 756 mmHg 61%
    21:00 +25°C° 0 mm 3 mps 755 mmHg 66%
    22:00 +24°C° 0 mm 2 mps 755 mmHg 72%
    23:00 +23°C° 0 mm 2 mps 755 mmHg 77%

    25 July, Tuesday

    Time Temperature Precipitation Wind Pressure Humidity
    00:00 +23°C° 0 mm 2 mps 755 mmHg 79%
    01:00 +22°C° 0 mm 1 mps 754 mmHg 80%
    02:00 +22°C° 0 mm 1 mps 754 mmHg 82%
    03:00 +22°C° 0 mm 1 mps 754 mmHg 81%
    04:00 +22°C° 0 mm 1 mps 754 mmHg 80%
    05:00 +22°C° 0 mm 1 mps 753 mmHg 79%
    06:00 +24°C° 0 mm 1 mps 753 mmHg 68%
    07:00 +27°C° 0 mm 1 mps 753 mmHg 56%
    08:00 +30°C° 0 mm 1 mps 753 mmHg 45%
    09:00 +32°C° 0 mm 2 mps 753 mmHg 40%
    10:00 +35°C° 0 mm 3 mps 753 mmHg 34%
    11:00 +37°C° 0 mm 4 mps 753 mmHg 29%
    12:00 +37°C° 0 mm 4 mps 752 mmHg 28%
    13:00 +38°C° 0 mm 4 mps 752 mmHg 28%
    14:00 +40°C° 0 mm 5 mps 752 mmHg 27%
    15:00 +39°C° 0 mm 5 mps 752 mmHg 30%
    16:00 +37°C° 0 mm 5 mps 751 mmHg 33%
    17:00 +36°C° 0 mm 5 mps 751 mmHg 36%
    18:00 +33°C° 0 mm 5 mps 751 mmHg 47%
    19:00 +29°C° 0 mm 4 mps 752 mmHg 59%
    20:00 +27°C° 0 mm 4 mps 752 mmHg 70%
    21:00 +26°C° 0 mm 3 mps 752 mmHg 75%
    22:00 +25°C° 0 mm 3 mps 752 mmHg 81%
    23:00 +24°C° 0 mm 3 mps 752 mmHg 86%

    26 July, Wednesday

    Time Temperature Precipitation Wind Pressure Humidity
    00:00 +24°C° 0 mm 2 mps 752 mmHg 86%
    01:00 +24°C° 0 mm 2 mps 752 mmHg 86%
    02:00 +23°C° 0 mm 2 mps 752 mmHg 85%
    03:00 +23°C° 0 mm 2 mps 752 mmHg 85%
    04:00 +23°C° 0 mm 1 mps 752 mmHg 85%
    05:00 +23°C° 0 mm 1 mps 752 mmHg 85%
    06:00 +25°C° 0 mm 1 mps 753 mmHg 76%
    07:00 +27°C° 0 mm 2 mps 753 mmHg 66%
    08:00 +30°C° 0 mm 2 mps 753 mmHg 56%
    09:00 +32°C° 0 mm 2 mps 753 mmHg 48%
    10:00 +35°C° 0 mm 3 mps 753 mmHg 40%
    11:00 +37°C° 0 mm 3 mps 753 mmHg 32%
    12:00 +38°C° 0 mm 4 mps 753 mmHg 31%
    13:00 +38°C° 0 mm 4 mps 752 mmHg 29%
    14:00 +40°C° 0 mm 4 mps 752 mmHg 28%
    15:00 +39°C° 0 mm 5 mps 752 mmHg 31%
    16:00 +36°C° 0 mm 5 mps 752 mmHg 35%
    17:00 +35°C° 0 mm 5 mps 752 mmHg 38%
    18:00 +32°C° 0 mm 4 mps 752 mmHg 50%
    19:00 +29°C° 0 mm 4 mps 753 mmHg 62%
    20:00 +26°C° 0 mm 3 mps 753 mmHg 74%
    21:00 +25°C° 0 mm 3 mps 753 mmHg 79%
    22:00 +24°C° 0 mm 2 mps 753 mmHg 84%
    23:00 +24°C° 0 mm 1 mps 753 mmHg 88%
    Show more